Regional Weather Roundup
Issued by NWS Wilmington, NC

Home | Current Version | Previous Version | Text Only | Print | Product List | Glossary On
Versions: 1 2 3 4 5 6 7 8 9 10 11 12 13 14 15 16 17 18 19 20 21 22 23 24 25 26 27 28 29 30 31 32 33 34 35 36 37 38 39 40 41 42 43 44 45 46 47 48 49 50
000
ASUS42 KILM 231510
RWRILM
RWRILM
REGIONAL HOURLY WEATHER ROUNDUP
NATIONAL WEATHER SERVICE WILMINGTON NC
1100 AM EDT SAT AUG 23 2014

NOTE: "FAIR" INDICATES FEW OR NO CLOUDS BELOW 12,000 FEET WITH NO
SIGNIFICANT WEATHER AND/OR OBSTRUCTIONS TO VISIBILITY.

...............WFO WILMINGTON COUNTY WARNING AREA...............

......COASTAL NC AND SC COUNTIES......

CITY           SKY/WX    TMP DP  RH WIND       PRES   REMARKS
WILMINGTON     PTSUNNY   83  77  82 VRB6      29.94R HX  92
SOUTHPORT      PTSUNNY   86  79  80 E6        29.93S HX 100
N MYRTLE BEACH SUNNY     86  78  77 VRB3      29.92S HX  98
MYRTLE BEACH   MOSUNNY   90  75  62 W5        29.93R HX 100

......INLAND NC AND SC COUNTIES.......

CITY           SKY/WX    TMP DP  RH WIND       PRES   REMARKS
LUMBERTON      MOSUNNY   84  75  74 E5        29.94S HX  92
ELIZABETHTOWN  PTSUNNY   82  72  70 E3        29.95S
WHITEVILLE     MOSUNNY   83  76  79 NE5       29.93S HX  92
FLORENCE       MOSUNNY   90  74  59 N6        29.94S HX  99
DARLINGTON     MOSUNNY   88  73  62 N6        29.96S HX  96

....................REST OF NORTH CAROLINA......................

.........EASTERN NC.........

CITY           SKY/WX    TMP DP  RH WIND       PRES   REMARKS
CAPE HATTERAS  PTSUNNY   81  71  71 VRB3      29.96S
JACKSONVILLE   CLOUDY    81  73  78 E6        29.96R
MOREHEAD CITY  CLOUDY    81  74  79 NE6       29.96S
KENANSVILLE    PTSUNNY   81  75  81 E6        29.97S
NEW BERN       PTSUNNY   82  73  74 E7        29.97S
ELIZABETH CITY PTSUNNY   80  71  74 NE9       29.98R

.........CENTRAL NC.........

CITY           SKY/WX    TMP DP  RH WIND       PRES   REMARKS
RALEIGH DURHAM PTSUNNY   81  70  69 E6        29.98S
ROCKY MOUNT    LGT RAIN  77  74  90 E3        29.98S FOG
ROANOKE RAPIDS NOT AVBL
FAYETTEVILLE   PTSUNNY   83  73  72 VRB5      29.95S
HOFFMAN        CLOUDY    82  71  68 VRB5      29.97S

.........WESTERN NC.........

CITY           SKY/WX    TMP DP  RH WIND       PRES   REMARKS
CHARLOTTE      PTSUNNY   84  68  58 N3        29.99S
GREENSBORO     PTSUNNY   80  73  79 NE8       30.00R
HICKORY        NOT AVBL
BOONE          NOT AVBL
ASHEVILLE      NOT AVBL

.....................REST OF SOUTH CAROLINA.....................

.........EASTERN SC.........

CITY           SKY/WX    TMP DP  RH WIND       PRES   REMARKS
CHARLESTON     MOSUNNY   94  74  52 W3        29.92F HX 104
BEAUFORT MCAS  SUNNY     91  72  53 NW7       29.94F HX  98
HILTON HEAD    NOT AVBL

.........CENTRAL SC.........

CITY           SKY/WX    TMP DP  RH WIND       PRES   REMARKS
COLUMBIA       MOSUNNY   90  71  53 N5        29.95S HX  96
ORANGEBURG     SUNNY     90  72  55 NW5       29.94S HX  97
SUMTER SHAW    PTSUNNY   85  76  74 N3        29.94S HX  94

.........WESTERN SC.........

CITY           SKY/WX    TMP DP  RH WIND       PRES   REMARKS
GREENVILLE     NOT AVBL
ROCK HILL      MOSUNNY   85  72  65 N3        29.99R HX  91
ANDERSON       SUNNY     88  67  49 CALM      30.00S HX  91
CLEMSON        NOT AVBL
GREENWOOD      MOSUNNY   93  68  43 N7        30.00S HX  97


...................COASTAL AND OFFSHORE REPORTS..................

................LOCAL PIERS AND NC RESERVE................


STATION/POSITION TIME  SKY/WX   TEMP    WIND        PRES    VSBY
                                AIR SEA DIR/SP/G
                 (UTC)          (F)     (DEG/KT/KT) (MB)    (MI)
JOHNY MRCER PIER 1500            82 83   90/ 11/ 12 1013.3S
NC RESRV MASNBRO 1400            84      80/  3     1013.0S
OCEAN CREST PIER 1500            85 85   80/  8/ 10 1012.4S
SPRINGMAID  PIER 1500            84 84   70/  3/  4 1013.3R


................COASTAL AND OFFSHORE BUOYS................


STATION/POSITION TIME  SKY/WX   TEMP    WIND        PRES    VSBY
                                AIR SEA DIR/SP/G
                 (UTC)          (F)     (DEG/KT/KT) (MB)    (MI)
DIMNDSHOAL 41025 1500            78     350/  8/ 10 1014.2R
WVE H/P(F/S)=  2/ 8 WND WVE H/P(F/S)=  2/ 3 SWL H/P/D(F/S/D)=  2/ 30/ 8

CAPE LOOKOUT     1400            78      80/  5/  6 1014.2R
ONSLOW BAY 41036 1500            81 83   90/ 12/ 12 1013.5S
WVE H/P(F/S)=  1/ 8 WND WVE H/P(F/S)=  2/ 3 SWL H/P/D(F/S/D)=  2/ 90/ 8

5 WRITEBCH 41038 1500            80 83  110/ 10/ 12   N/A
MASONBORO  41110 1500               83                N/A
WVE H/P(F/S)=  1/ 2 WND WVE H/P(F/S)=  2/ 2

WILM HARBR 41108 1500               85                N/A
WVE H/P(F/S)=  1/ 4 WND WVE H/P(F/S)=  2/ 4

27WRITEBCH 41037 1400            80 83  110/  8/ 10 1013.5S
FRYING PAN 41013 NOT AVBL
SUNST NRSH 41024 1400            83      30/  6/  8 1013.1R
CAPRS NRSH 41029 1400            89     310/  4/  6   N/A
EDISTO     41004 1500            85 85  270/  8/ 10 1012.7R
WVE H/P(F/S)=  2/ 4 WND WVE H/P(F/S)=  2/ 4 SWL H/P/D(F/S/D)=  2/ 4



..........OFFSHORE BUOYS BEYOND 100 NM OFFSHORE...........
.....IN A TRIANGLE---HAT TO BERMUDA TO BAHAMAS TO HAT.....


STATION/POSITION TIME  SKY/WX   TEMP    WIND        PRES    VSBY
                                AIR SEA DIR/SP/G
                 (UTC)          (F)     (DEG/KT/KT) (MB)    (MI)
150E HAT   41001 NOT AVBL
W BERMUDA  41048 1353            80 81  290/ 12/ 14 1013.3
WVE H/P(F/S)=  5/ 7 WND WVE H/P(F/S)=  3/ 6 SWL H/P/D(F/S/D)=  3/260/ 7

ATLANTIC S 41049 1356            85 86  200/ 12/ 14 1016.2R
WVE H/P(F/S)=  5/ 9 WND WVE H/P(F/S)=  2/ 5 SWL H/P/D(F/S/D)=  5/140/ 9

E BAHAMAS  41046 1450            84 85  130/ 21/ 25 1012.7S
WVE H/P(F/S)=  9/10 WND WVE H/P(F/S)=  7/ 7 SWL H/P/D(F/S/D)=  5/120/10

NE BAHAMAS 41047 1443            83 84   50/ 10/ 12 1015.5R
WVE H/P(F/S)=  4/ 7 WND WVE H/P(F/S)=  2/ 4 SWL H/P/D(F/S/D)=  3/130/ 7

120E CANVRL41010 1500            84 86  230/  4/  6 1015.5R
WVE H/P(F/S)=  2/ 7 SWL H/P/D(F/S/D)=  2/130/ 7


END


USA.gov is the U.S. government's official web portal to all federal, state and local government web resources and services.